Newport, RI

4:03 AM EDT on October 21, 2019 (GMT -0400)
Newport State

Weather History for KUUU - September, 2019

Change the Weather History Date:

Saturday, September 21, 2019

  Actual Average Record
Temperature  
Mean Temperature 67 °F -  
Max Temperature 80 °F 69 °F 82 °F (2016)
Min Temperature 55 °F 56 °F 40 °F (1962)
Cooling Degree Days 2    
Growing Degree Days 17 (Base 50)    
Moisture  
Dew Point 54 °F    
Average Humidity 66    
Maximum Humidity 93    
Minimum Humidity 42    
Precipitation  
Precipitation 0.00 in - - ()
Sea Level Pressure  
Sea Level Pressure 30.17 in    
Wind  
Wind Speed 3 mph ()    
Max Wind Speed 8 mph    
Max Gust Speed -    
Visibility 9.8 miles    
Events      
Averages and records for this station are not official NWS values.
T = Trace of Precipitation, MM = Missing Value Source: Averaged Metar Reports

Daily Weather History Graph

Daily Weather History Graph

Search for Another Location

Airport or City:

Astronomy

Sep. 21, 2019 Rise Set
Actual Time 6:31 AM EDT 6:44 PM EDT
Civil Twilight 6:03 AM EDT 7:12 PM EDT
Nautical Twilight 5:31 AM EDT 7:44 PM EDT
Astronomical Twilight 4:57 AM EDT 8:17 PM EDT
Moon 11:14 PM EDT 1:39 PM EDT
Length of Visible Light 13h 08m
Length of Day
12h 13m
Waning Gibbous, 55% of the Moon is Illuminated
Sep 21
Waning Gibbous
Sep 21
Last Quarter
Sep 28
New
Oct 5
First Quarter
Oct 13
Full

Hourly Weather History & Observations

Time (EDT) Temp. Dew Point Humidity Pressure Visibility Wind Dir Wind Speed Gust Speed Precip Events Conditions
12:53 AM 64.0 °F 51.1 °F 63% 30.13 in 10.0 mi West 3.5 mph - N/A   Clear
1:53 AM 59.0 °F 51.1 °F 75% 30.14 in 10.0 mi Calm Calm - N/A   Clear
2:53 AM 55.9 °F 50.0 °F 80% 30.14 in 10.0 mi Calm Calm - N/A   Clear
3:53 AM 55.9 °F 51.1 °F 84% 30.14 in 10.0 mi Calm Calm - N/A   Clear
4:53 AM 55.9 °F 51.1 °F 84% 30.14 in 10.0 mi Calm Calm - N/A   Clear
5:53 AM 57.0 °F 50.0 °F 77% 30.16 in 10.0 mi Calm Calm - N/A   Clear
6:53 AM 57.0 °F 51.1 °F 81% 30.17 in 10.0 mi Calm Calm - N/A   Clear
7:53 AM 63.0 °F 53.1 °F 70% 30.18 in 10.0 mi NNW 3.5 mph - N/A   Clear
8:53 AM 69.1 °F 54.0 °F 58% 30.20 in 10.0 mi North 6.9 mph - N/A   Clear
9:53 AM 75.0 °F 55.0 °F 50% 30.20 in 10.0 mi NNE 5.8 mph - N/A   Clear
10:53 AM 77.0 °F 54.0 °F 45% 30.20 in 10.0 mi East 3.5 mph - N/A   Clear
11:53 AM 78.1 °F 57.9 °F 50% 30.19 in 9.0 mi Variable 3.5 mph - N/A   Clear
12:53 PM 79.0 °F 55.9 °F 45% 30.18 in 10.0 mi Variable 4.6 mph - N/A   Clear
1:53 PM 79.0 °F 54.0 °F 42% 30.17 in 10.0 mi South 5.8 mph - N/A   Clear
2:53 PM 78.1 °F 53.1 °F 42% 30.16 in 10.0 mi SSE 8.1 mph - N/A   Clear
3:53 PM 75.9 °F 52.0 °F 43% 30.16 in 10.0 mi South 8.1 mph - N/A   Clear
4:53 PM 73.9 °F 51.1 °F 45% 30.16 in 10.0 mi South 8.1 mph - N/A   Clear
5:53 PM 71.1 °F 57.0 °F 61% 30.16 in 10.0 mi South 4.6 mph - N/A   Clear
6:53 PM 68.0 °F 57.0 °F 68% 30.16 in 10.0 mi South 3.5 mph - N/A   Clear
7:53 PM 66.0 °F 57.9 °F 75% 30.16 in 10.0 mi South 4.6 mph - N/A   Clear
8:53 PM 64.0 °F 59.0 °F 84% 30.17 in 10.0 mi South 4.6 mph - N/A   Clear
9:53 PM 64.9 °F 60.1 °F 84% 30.18 in 10.0 mi SSE 3.5 mph - N/A   Clear
10:53 PM 62.1 °F 60.1 °F 93% 30.18 in 8.0 mi Calm Calm - N/A   Clear
11:53 PM 64.0 °F 61.0 °F 90% 30.18 in 8.0 mi South 3.5 mph - N/A   Clear